Regional Weather Roundup
Issued by NWS

Home | Current Version | Previous Version | Graphics & Text | Print | Product List | Glossary Off
Versions: 1 2 3 4 5 6 7 8 9 10 11 12 13 14 15 16 17 18 19 20 21 22 23 24 25 26 27 28 29 30 31 32 33 34 35 36 37 38 39 40 41 42 43 44 45 46 47 48 49 50

000
ASUS43 KDTX 021810
RWRMI
MICHIGAN HOURLY REGIONAL WEATHER ROUNDUP
NATIONAL WEATHER SERVICE DETROIT/PONTIAC MI
200 PM EDT MON MAY 02 2016

NOTE: "FAIR" INDICATES FEW OR NO CLOUDS BELOW 12,000 FEET WITH NO
SIGNIFICANT WEATHER AND/OR OBSTRUCTION TO VISIBILITY.

MIZ047>049-052>055-059>063-066>070-074>076-081>083-021900-
SOUTHEAST LOWER MICHIGAN

CITY           SKY/WX    TMP DP  RH WIND       PRES   REMARKS
ADRIAN         CLOUDY    50  45  83 NE8       30.02S
6HR MIN TEMP:  46; 6HR MAX TEMP:  51;

ALMA           CLOUDY    53  43  69 NE9       30.04F
6HR MIN TEMP:  42; 6HR MAX TEMP:  53;

ANN ARBOR      CLOUDY    51  45  79 NE6       30.02S
BAD AXE        PTSUNNY   54  38  54 E9        30.06R
CARO           CLOUDY    57  38  49 N7        30.03F
DETROIT CITY   CLOUDY    51  43  74 E7        30.02S
6HR MIN TEMP:  46; 6HR MAX TEMP:  53; 6HR PCP:  0.01;

DETROIT        CLOUDY    51  43  74 NE6       30.01F
6HR MIN TEMP:  47; 6HR MAX TEMP:  53; 6HR PCP: TRACE;

FLINT          CLOUDY    54  43  66 NE9       30.03F
6HR MIN TEMP:  45; 6HR MAX TEMP:  55; 6HR PCP: TRACE;

GROSSE ILE     CLOUDY    54  46  76 NE8       30.01S
HILLSDALE      CLOUDY    47  44  89 NE5       30.02R FOG
6HR MIN TEMP:  43; 6HR MAX TEMP:  47;

HOWELL         CLOUDY    50  45  83 NE7       30.02F

CITY           SKY/WX    TMP DP  RH WIND       PRES   REMARKS
JACKSON        CLOUDY    50  45  83 NE8       30.02F
6HR MIN TEMP:  43; 6HR MAX TEMP:  50;

LAMBERTVILLE   CLOUDY    51  47  86 E3        30.02S
6HR MIN TEMP:  47; 6HR MAX TEMP:  53;

LANSING        CLOUDY    52  43  71 N12       30.03F
6HR MIN TEMP:  42; 6HR MAX TEMP:  53;

LAPEER         PTSUNNY   53  42  65 NE5       30.03F
6HR MIN TEMP:  43; 6HR MAX TEMP:  54;

MASON          CLOUDY    49  45  84 NE7       30.03S
MONROE         CLOUDY    51  47  85 NE5       30.01F
6HR MIN TEMP:  46; 6HR MAX TEMP:  52; 6HR PCP:  0.01;

MT. CLEMENS    CLOUDY    52  45  77 N7        30.01F
6HR MIN TEMP:  46; 6HR MAX TEMP:  52; 6HR PCP: TRACE;

PONTIAC        CLOUDY    50  43  77 NE9       30.00F
6HR MIN TEMP:  44; 6HR MAX TEMP:  51; 6HR PCP: TRACE;

PORT HOPE        N/A     47  41  80 N7        30.04F
6HR MIN TEMP:  41; 6HR MAX TEMP:  47;

PORT HURON     SUNNY     52  43  71 NE13      30.02S
TRI CITIES     PTSUNNY   55  41  59 NE8G16    30.06F
6HR MIN TEMP:  44; 6HR MAX TEMP:  56;

MIDLAND        CLOUDY    55  37  51 NE14      30.06F
6HR MIN TEMP:  43; 6HR MAX TEMP:  56;

TROY           CLOUDY    52  44  72 NE8       30.03F
SAGINAW HB     CLOUDY    54  45  71 NE8       30.04F
$$
MIZ043>046-050>051-056>058-064>065-071>073-077>080-021900-
SOUTHWEST LOWER MICHIGAN

CITY           SKY/WX    TMP DP  RH WIND       PRES   REMARKS
BATTLE CREEK   CLOUDY    50  43  77 NE7       30.04R
6HR MIN TEMP:  43; 6HR MAX TEMP:  51; 6HR PCP:  0.02;

BENTON HARBOR  CLOUDY    50  40  68 VRB6      30.04R
6HR MIN TEMP:  45; 6HR MAX TEMP:  54;

BIG RAPIDS     PTSUNNY   58  33  38 E12G17    30.03F
6HR MIN TEMP:  41; 6HR MAX TEMP:  59;

COLDWATER      CLOUDY    50  46  84 E6        30.02R
6HR MIN TEMP:  44; 6HR MAX TEMP:  50;

FREMONT        PTSUNNY   61  31  32 E10       30.01F
6HR MIN TEMP:  44; 6HR MAX TEMP:  61;

HOLLAND        CLOUDY    57  41  55 E9        30.03F
GRAND RAPIDS   PTSUNNY   57  42  57 E14       30.02F
6HR MIN TEMP:  45; 6HR MAX TEMP:  58;

IONIA          CLOUDY    52  43  69 NE12      30.02F
6HR MIN TEMP:  41; 6HR MAX TEMP:  53;

KALAMAZOO      CLOUDY    53  43  68 VRB5      30.04R
6HR MIN TEMP:  44; 6HR MAX TEMP:  54; 6HR PCP: TRACE;

LUDINGTON      SUNNY     57  37  47 NW13      30.04F
6HR MIN TEMP:  39; 6HR MAX TEMP:  58;

MARSHALL       CLOUDY    48  44  85 NE3       30.03S
6HR MIN TEMP:  43; 6HR MAX TEMP:  49;

MOUNT PLEASANT PTSUNNY   57  35  43 E8G16     30.03F
6HR MIN TEMP:  39; 6HR MAX TEMP:  58;

MUSKEGON       CLOUDY    61  37  41 NE10G21   30.03F
6HR MIN TEMP:  46; 6HR MAX TEMP:  62;

SOUTH HAVEN    CLOUDY    52  42  68 NW5       30.03R
$$
MIZ016>042-021900-
NORTHERN LOWER MICHIGAN

CITY           SKY/WX    TMP DP  RH WIND       PRES   REMARKS
ALPENA         SUNNY     61  28  28 VRB5      30.04F
6HR MIN TEMP:  41; 6HR MAX TEMP:  62;

BEAVER ISLAND  SUNNY     61  33  34 W6        30.06S
6HR MIN TEMP:  43; 6HR MAX TEMP:  61;

BELLAIRE       PTSUNNY   61  33  33 NW9       30.04S
6HR MIN TEMP:  34; 6HR MAX TEMP:  61;

CADILLAC       CLOUDY    58  31  35 SE5       30.03F
CHARLEVOIX     MOSUNNY   55  38  54 W8        30.10R
FRANKFORT      PTSUNNY   59  38  45 N7        30.05F
GAYLORD        CLOUDY    59  27  29 VRB5      30.03F
6HR MIN TEMP:  36; 6HR MAX TEMP:  60;

GRAYLING       CLOUDY    61  30  31 N5        30.04S
HARBOR SPRINGS MOSUNNY   48  37  65 SW6       30.06S
HOUGHTON LAKE  PTSUNNY   59  28  30 NE8G17    30.04S
6HR MIN TEMP:  38; 6HR MAX TEMP:  60;

MANISTEE       SUNNY     54  34  47 NW14      30.05F
OSCODA         CLOUDY    54  37  51 E6        30.05F
6HR MIN TEMP:  42; 6HR MAX TEMP:  54;

PELLSTON       PTSUNNY   61  27  27 NE9       30.04F
6HR MIN TEMP:  40; 6HR MAX TEMP:  62;

ROGERS CITY    SUNNY     55  32  42 N8        30.06S
TRAVERSE CITY  MOSUNNY   59  36  42 N7        30.04F
6HR MIN TEMP:  42; 6HR MAX TEMP:  59;

$$
MIZ007>008-015-021900-
EASTERN UPPER MICHIGAN

CITY           SKY/WX    TMP DP  RH WIND       PRES   REMARKS
KINROSS          N/A     61  28  29 NW7       30.04R
6HR MIN TEMP:  45; 6HR MAX TEMP:  61;

MACKINAC ISLAN CLOUDY    55  33  43 CALM      30.04F
6HR MIN TEMP:  44; 6HR MAX TEMP:  57;

NEWBERRY       CLOUDY    59  33  38 N9G16     30.04S
6HR MIN TEMP:  41; 6HR MAX TEMP:  60;

S. S. MARIE    MOSUNNY   61  31  32 W9        30.03F
6HR MIN TEMP:  47; 6HR MAX TEMP:  62;

MUNISING         N/A     46  38  73 NE9       30.10S
6HR MIN TEMP:  38; 6HR MAX TEMP:  47;

$$
MIZ004>006-011>014-085-021900-
CENTRAL UPPER MICHIGAN

CITY           SKY/WX    TMP DP  RH WIND       PRES   REMARKS
MANISTIQUE     CLOUDY    55  37  49 SW8       30.05S
6HR MIN TEMP:  39; 6HR MAX TEMP:  61;

ESCANABA       MOSUNNY   63  32  31 E13       30.05F
6HR MIN TEMP:  41; 6HR MAX TEMP:  63;

MENOMINEE      SUNNY     57  36  44 SE10      30.07F
6HR MIN TEMP:  39; 6HR MAX TEMP:  57;

SAWYER-GWINN   MOSUNNY   54  32  43 NE14      30.11S
$$
MIZ001>003-009>011-084-021900-
WESTERN UPPER MICHIGAN

CITY           SKY/WX    TMP DP  RH WIND       PRES   REMARKS
IRON MOUNTAIN  SUNNY     62  27  26 MISG      30.04F
6HR MIN TEMP:  36; 6HR MAX TEMP:  62;

HOUGHTON       SUNNY     58  30  34 VRB5G18   30.08F
6HR MIN TEMP:  41; 6HR MAX TEMP:  59;

COPPER HARBOR    N/A     44  37  76 N3        30.10F
IRONWOOD         N/A     59  30  33 N8G17     30.06S
6HR MIN TEMP:  30; 6HR MAX TEMP:  59;

$$

ABBREVIATIONS USED IN REMARKS
   TC - TEMPERATURE IN CELSIUS
  WCI - WIND CHILL INDEX
   HX - HEAT INDEX
  VSB - VISIBILITY




USA.gov is the U.S. government's official web portal to all federal, state and local government web resources and services.